EW2652 Weather Reports


time (UTC)temp
C
wind
direction
speed
KPH
gust
KPH
rain 1hr
cm
rain 24hr
cm
rain mn
cm
humidity
%
barometer
mb
20260507160029 17 9 3.2 6.4 0.00 0.00 0.00 79 1016.5
20260507154529 17 233 1.6 4.8 0.00 0.00 0.00 79 1016.5
20260507153024 16 50 1.6 6.4 0.00 0.00 0.00 85 1016.5
20260507151524 14 238 1.6 6.4 0.00 0.00 0.00 88 1016.5
20260507150022 14 251 1.6 4.8 0.00 0.00 0.00 89 1016.4
20260507144525 13 309 0.0 0.0 0.00 0.00 0.00 91 1016.5
20260507143017 13 261 0.0 4.8 0.00 0.00 0.00 90 1016.3
20260507141518 13 344 0.0 3.2 0.00 0.00 0.00 90 1016.1
20260507140016 13 347 1.6 4.8 0.00 0.00 0.00 90 1016.2
20260507134514 13 308 0.0 3.2 0.00 0.00 0.00 90 1016.0
20260507133014 12 20 0.0 4.8 0.00 0.00 0.00 90 1016.0
20260507131522 12 54 1.6 4.8 0.00 0.00 0.00 91 1016.0
20260507130012 12 9 0.0 1.6 0.00 0.00 0.00 91 1015.9
20260507124510 12 5 0.0 3.2 0.00 0.00 0.00 91 1015.7
20260507123009 12 5 0.0 0.0 0.00 0.00 0.00 91 1015.6
20260507121507 12 5 0.0 3.2 0.00 0.00 0.00 91 1015.6
20260507120006 12 36 0.0 0.0 0.00 0.00 0.00 91 1015.5
20260507114604 12 36 0.0 3.2 0.00 0.00 0.00 90 1015.7
20260507113058 12 36 0.0 3.2 0.00 0.00 0.00 91 1015.6
20260507111557 12 344 0.0 3.2 0.00 0.00 0.00 91 1015.7
20260507110059 12 290 0.0 1.6 0.00 0.00 0.00 91 1015.8
20260507104556 12 290 0.0 3.2 0.00 0.00 0.00 90 1015.8
20260507103055 12 289 0.0 1.6 0.00 0.00 0.00 90 1016.0
20260507101559 13 282 0.0 1.6 0.00 0.00 0.00 89 1016.0
20260507100058 13 287 0.0 3.2 0.00 0.00 0.00 89 1016.1
20260507094547 13 158 0.0 1.6 0.00 0.00 0.00 89 1016.2
20260507093045 13 158 0.0 1.6 0.00 0.00 0.00 89 1016.3
20260507091545 13 158 0.0 1.6 0.00 0.00 0.00 89 1016.4
20260507090047 13 158 0.0 0.0 0.00 0.00 0.00 89 1016.6
20260507084547 13 158 0.0 3.2 0.00 0.00 0.00 88 1016.6
20260507083052 13 88 1.6 4.8 0.00 0.00 0.00 87 1016.8
20260507081540 13 319 0.0 1.6 0.00 0.00 0.00 87 1016.9
20260507080037 14 311 1.6 4.8 0.00 0.00 0.00 86 1016.9
20260507074534 14 327 0.0 1.6 0.00 0.00 0.00 85 1017.1
20260507073032 15 267 1.6 3.2 0.00 0.00 0.00 87 1017.0
20260507071531 15 196 0.0 3.2 0.00 0.00 0.00 86 1017.1
20260507070035 15 194 0.0 3.2 0.00 0.00 0.00 86 1017.1
20260507064534 15 234 0.0 3.2 0.00 0.00 0.00 84 1017.3
20260507063030 15 238 0.0 1.6 0.00 0.00 0.00 84 1017.3
20260507061527 15 234 0.0 1.6 0.00 0.00 0.00 82 1017.2
20260507060025 15 232 0.0 3.2 0.00 0.00 0.00 83 1017.3
20260507054529 15 240 1.6 6.4 0.00 0.00 0.00 85 1017.2
20260507053025 16 260 3.2 9.7 0.00 0.00 0.00 84 1017.2
20260507051524 16 234 0.0 6.4 0.00 0.00 0.00 84 1017.3
20260507050033 16 242 1.6 8.0 0.00 0.00 0.00 83 1017.2
20260507044533 16 256 1.6 9.7 0.00 0.00 0.00 83 1017.2
20260507043023 16 239 3.2 8.0 0.00 0.00 0.00 82 1017.0
20260507041530 16 226 1.6 11.3 0.00 0.00 0.00 81 1016.9
20260507040022 16 250 4.8 12.9 0.00 0.00 0.00 81 1017.0
20260507034521 16 273 3.2 9.7 0.00 0.00 0.00 79 1016.8
20260507033025 17 227 4.8 11.3 0.00 0.00 0.00 77 1016.6
20260507031526 17 229 1.6 12.9 0.00 0.00 0.00 73 1016.6
20260507030020 17 219 1.6 9.7 0.00 0.00 0.00 72 1016.4
20260507024519 17 264 8.0 16.1 0.00 0.00 0.00 72 1016.3
20260507023019 17 285 4.8 11.3 0.00 0.00 0.00 70 1016.3
20260507021518 18 258 3.2 14.5 0.00 0.00 0.00 69 1016.2
20260507020018 18 237 6.4 16.1 0.00 0.00 0.00 69 1016.1
20260507014519 18 221 4.8 17.7 0.00 0.00 0.00 68 1015.9
20260507013022 18 252 4.8 20.9 0.00 0.00 0.00 68 1016.0
20260507011519 20 251 8.0 16.1 0.00 0.00 0.00 67 1015.9
20260507010016 20 200 6.4 14.5 0.00 0.00 0.00 65 1015.8
20260507004530 20 241 6.4 20.9 0.00 0.00 0.00 64 1015.8
20260507003014 20 250 8.0 17.7 0.00 0.00 0.00 62 1015.8
20260507001514 20 212 8.0 17.7 0.00 0.00 0.00 61 1015.6
20260507000017 20 201 6.4 17.7 0.00 0.00 0.00 61 1015.5
20260506234516 21 255 6.4 20.9 0.00 0.00 0.00 61 1015.4
20260506233012 20 256 9.7 24.1 0.00 0.00 0.00 61 1015.4
20260506231528 21 244 3.2 22.5 0.00 0.00 0.00 61 1015.5
20260506230010 20 254 6.4 20.9 0.00 0.00 0.00 64 1015.5
20260506224510 20 239 12.9 25.7 0.00 0.00 0.00 64 1015.6
20260506223008 20 227 11.3 20.9 0.00 0.00 0.00 63 1015.7
20260506221508 21 253 9.7 24.1 0.00 0.00 0.00 63 1015.7
20260506220006 21 215 8.0 20.9 0.00 0.00 0.00 62 1015.9
20260506214504 21 200 8.0 20.9 0.00 0.00 0.00 62 1015.9
20260506213003 21 230 9.7 27.4 0.00 0.00 0.00 60 1016.0
20260506211504 21 57 4.8 17.7 0.00 0.00 0.00 59 1016.2
20260506210001 21 346 8.0 22.5 0.00 0.00 0.00 61 1016.1
20260506204601 20 250 12.9 29.0 0.00 0.00 0.00 62 1016.2
20260506203103 21 234 14.5 33.8 0.00 0.00 0.00 62 1016.3
20260506201609 21 229 8.0 25.7 0.00 0.00 0.00 62 1016.5
20260506194609 21 265 14.5 29.0 0.00 0.00 0.00 60 1016.7
20260506193055 21 290 9.7 20.9 0.00 0.00 0.00 59 1016.8
20260506191552 21 263 11.3 20.9 0.00 0.00 0.00 61 1016.9
20260506190050 21 202 11.3 22.5 0.00 0.00 0.00 59 1017.2
20260506184558 21 220 8.0 24.1 0.00 0.00 0.00 61 1017.2
20260506183058 20 172 3.2 17.7 0.00 0.00 0.00 61 1017.4
20260506181545 20 161 4.8 16.1 0.00 0.00 0.00 60 1017.5
20260506180048 20 226 4.8 9.7 0.00 0.00 0.00 59 1017.7
20260506174545 19 202 4.8 12.9 0.00 0.00 0.00 62 1017.8
20260506173049 20 240 4.8 12.9 0.00 0.00 0.00 60 1018.0
20260506171541 19 107 3.2 6.4 0.00 0.00 0.00 65 1018.1
20260506170055 18 265 3.2 9.7 0.00 0.00 0.00 64 1018.2
20260506164534 18 308 3.2 12.9 0.00 0.03 0.00 65 1018.2
20260506163034 17 11 3.2 8.0 0.00 0.03 0.00 70 1018.3
20260506161530 17 355 3.2 8.0 0.00 0.03 0.00 71 1018.2